Location: Newark
(35.6799°N, 139.7636°E)
Time: 20:13:24
(UTC+00:00)

Courier 1B - Pass Details

Date: 18 December 2019
Orbit: 962 x 1209 km, 28.3° (Epoch: 28 January)

Event Time Altitude Azimuth Distance (km) Brightness Sun altitude
Rises 09:31:14 0° 246° (WSW) 3,695 11.9 -23.9°
Reaches altitude 10° 09:33:58 10° 240° (WSW) 2,775 10.8 -24.4°
Maximum altitude 09:40:17 43° 171° (S) 1,434 8.3 -25.7°
Enters shadow 09:42:01 37° 137° (SE) 1,595 8.3 -26.0°
